�������l�o���
Date,Time,MP-1(��Sv/h),MP-2(��Sv/h),MP-3(��Sv/h),MP-4(��Sv/h),MP-5(��Sv/h),MP-6(��Sv/h),MP-7(��Sv/h),MP-8(��Sv/h),����,����(m/s),���J
2020/09/14,00:00,0.647,0.914,0.594,1.131,0.805,0.378,0.658,0.624,�k�k��,9.2,�L
2020/09/14,00:10,0.649,0.917,0.593,1.132,0.805,0.378,0.659,0.623,�k�k��,8.0,�L
2020/09/14,00:20,0.648,0.918,0.592,1.134,0.807,0.376,0.659,0.624,�k�k��,8.2,�L
2020/09/14,00:30,0.649,0.917,0.593,1.134,0.805,0.377,0.660,0.623,�k�k��,8.5,�L
2020/09/14,00:40,0.647,0.917,0.593,1.132,0.805,0.379,0.660,0.624,�k�k��,8.5,�L
2020/09/14,00:50,0.647,0.916,0.594,1.133,0.808,0.379,0.660,0.624,�k�k��,8.5,�L
2020/09/14,01:00,0.648,0.917,0.594,1.133,0.808,0.380,0.660,0.622,�k��,8.5,�L
2020/09/14,01:10,0.648,0.917,0.592,1.133,0.806,0.379,0.659,0.622,�k��,8.7,�L
2020/09/14,01:20,0.648,0.918,0.595,1.134,0.808,0.379,0.660,0.622,�k��,9.1,�L
2020/09/14,01:30,0.649,0.917,0.593,1.134,0.807,0.379,0.660,0.623,�k�k��,10.5,�L
2020/09/14,01:40,0.648,0.919,0.593,1.134,0.809,0.379,0.660,0.624,�k��,8.6,�L
2020/09/14,01:50,0.650,0.918,0.593,1.134,0.807,0.380,0.660,0.624,�k��,9.2,��
2020/09/14,02:00,0.650,0.919,0.594,1.135,0.809,0.379,0.660,0.626,�k�k��,8.7,��
2020/09/14,02:10,0.651,0.919,0.594,1.136,0.808,0.379,0.660,0.627,�k�k��,8.9,��
2020/09/14,02:20,0.650,0.920,0.597,1.139,0.811,0.380,0.661,0.628,�k��,8.9,��
2020/09/14,02:30,0.650,0.919,0.597,1.135,0.810,0.378,0.660,0.626,�k��,7.2,��
2020/09/14,02:40,0.651,0.919,0.594,1.136,0.808,0.379,0.661,0.626,�k��,6.1,��
2020/09/14,02:50,0.650,0.920,0.596,1.137,0.809,0.378,0.661,0.626,�k��,6.8,��
2020/09/14,03:00,0.649,0.920,0.594,1.136,0.808,0.378,0.660,0.625,�k��,7.9,��
2020/09/14,03:10,0.649,0.922,0.595,1.138,0.811,0.379,0.662,0.625,�k��,7.7,��
2020/09/14,03:20,0.649,0.921,0.595,1.137,0.811,0.379,0.662,0.626,�k�k��,7.7,�L
2020/09/14,03:30,0.649,0.921,0.595,1.138,0.812,0.379,0.662,0.624,�k�k��,8.3,�L
2020/09/14,03:40,0.649,0.921,0.598,1.139,0.812,0.380,0.662,0.624,�k��,8.0,�L
2020/09/14,03:50,0.649,0.921,0.597,1.141,0.810,0.380,0.661,0.626,�k��,7.2,�L
2020/09/14,04:00,0.651,0.919,0.594,1.139,0.810,0.379,0.661,0.624,�k�k��,8.1,�L
2020/09/14,04:10,0.650,0.920,0.594,1.140,0.806,0.379,0.661,0.621,�k�k��,9.0,��
2020/09/14,04:20,0.648,0.921,0.595,1.138,0.808,0.379,0.661,0.623,�k�k��,8.5,��
2020/09/14,04:30,0.651,0.918,0.596,1.140,0.809,0.380,0.662,0.623,�k�k��,9.0,��
2020/09/14,04:40,0.650,0.920,0.595,1.139,0.809,0.379,0.663,0.624,�k�k��,9.4,�L
2020/09/14,04:50,0.649,0.919,0.595,1.140,0.809,0.380,0.661,0.626,�k�k��,9.3,�L
2020/09/14,05:00,0.650,0.919,0.595,1.138,0.809,0.382,0.663,0.624,�k��,7.0,�L
2020/09/14,05:10,0.651,0.920,0.596,1.141,0.811,0.378,0.661,0.626,�k�k��,9.2,�L
2020/09/14,05:20,0.652,0.920,0.595,1.142,0.812,0.380,0.662,0.624,�k�k��,9.4,��
2020/09/14,05:30,0.650,0.921,0.595,1.139,0.808,0.378,0.662,0.624,�k�k��,8.9,��
2020/09/14,05:40,0.651,0.920,0.598,1.140,0.812,0.379,0.663,0.627,�k��,7.3,��
2020/09/14,05:50,0.652,0.921,0.596,1.139,0.809,0.380,0.661,0.624,�k��,8.9,��
2020/09/14,06:00,0.653,0.923,0.596,1.141,0.811,0.380,0.661,0.626,�k��,8.6,��
2020/09/14,06:10,0.650,0.920,0.597,1.139,0.811,0.378,0.661,0.625,�k�k��,7.5,��
2020/09/14,06:20,0.652,0.924,0.597,1.141,0.811,0.378,0.661,0.625,�k��,7.2,��
2020/09/14,06:30,0.650,0.920,0.596,1.140,0.812,0.379,0.662,0.624,�k��,7.3,��
2020/09/14,06:40,0.653,0.921,0.597,1.139,0.813,0.380,0.663,0.626,�k�k��,7.4,��
2020/09/14,06:50,0.652,0.921,0.596,1.142,0.810,0.379,0.663,0.628,�k�k��,7.2,��
2020/09/14,07:00,0.652,0.921,0.597,1.141,0.810,0.379,0.663,0.625,�k�k��,7.2,��
2020/09/14,07:10,0.650,0.921,0.597,1.142,0.812,0.380,0.664,0.626,�k�k��,7.7,��
2020/09/14,07:20,0.648,0.923,0.595,1.142,0.811,0.379,0.664,0.625,�k�k��,7.7,��
2020/09/14,07:30,0.649,0.922,0.594,1.141,0.811,0.378,0.664,0.625,�k�k��,6.5,��
2020/09/14,07:40,0.651,0.923,0.598,1.141,0.811,0.379,0.662,0.626,�k�k��,7.4,��
2020/09/14,07:50,0.651,0.922,0.598,1.142,0.811,0.380,0.664,0.628,�k�k��,8.5,��
2020/09/14,08:00,0.651,0.919,0.594,1.143,0.809,0.378,0.666,0.625,�k�k��,7.7,��
2020/09/14,08:10,0.651,0.920,0.597,1.143,0.811,0.380,0.665,0.625,�k�k��,7.2,��
2020/09/14,08:20,0.652,0.923,0.595,1.144,0.811,0.380,0.662,0.625,�k�k��,8.3,��
2020/09/14,08:30,0.652,0.921,0.594,1.143,0.810,0.380,0.664,0.625,�k�k��,7.5,��
2020/09/14,08:40,0.652,0.921,0.596,1.143,0.811,0.379,0.663,0.624,�k�k��,9.7,��
2020/09/14,08:50,0.651,0.924,0.595,1.142,0.810,0.379,0.664,0.625,�k�k��,8.4,��
2020/09/14,09:00,0.653,0.920,0.596,1.144,0.812,0.379,0.665,0.626,�k�k��,7.6,��
2020/09/14,09:10,0.654,0.920,0.594,1.146,0.812,0.380,0.664,0.626,�k�k��,6.8,��
2020/09/14,09:20,0.653,0.917,0.596,1.145,0.812,0.379,0.665,0.623,�k�k��,7.3,��
2020/09/14,09:30,0.652,0.923,0.596,1.145,0.814,0.380,0.665,0.625,�k�k��,8.9,��
2020/09/14,09:40,0.654,0.922,0.595,1.146,0.812,0.381,0.666,0.624,�k�k��,8.8,��
2020/09/14,09:50,0.656,0.919,0.596,1.144,0.814,0.379,0.664,0.625,�k�k��,7.7,��
2020/09/14,10:00,0.653,0.919,0.593,1.144,0.814,0.382,0.665,0.625,�k�k��,8.2,��
2020/09/14,10:10,0.655,0.920,0.596,1.146,0.814,0.379,0.666,0.626,�k�k��,8.5,��
2020/09/14,10:20,0.653,0.922,0.595,1.144,0.814,0.377,0.665,0.626,�k�k��,7.5,��
2020/09/14,10:30,0.657,0.923,0.595,1.145,0.814,0.379,0.666,0.626,�k�k��,9.0,��
2020/09/14,10:40,0.656,0.924,0.597,1.146,0.813,0.378,0.666,0.625,�k�k��,7.5,��
2020/09/14,10:50,0.655,0.923,0.597,1.146,0.816,0.379,0.667,0.626,�k�k��,7.8,��
2020/09/14,11:00,0.656,0.925,0.597,1.146,0.817,0.379,0.664,0.626,�k�k��,7.2,��
2020/09/14,11:10,0.657,0.925,0.597,1.148,0.818,0.379,0.667,0.625,�k�k��,6.8,��
2020/09/14,11:20,0.656,0.925,0.598,1.143,0.816,0.379,0.666,0.627,�k�k��,7.3,��
2020/09/14,11:30,0.657,0.924,0.599,1.144,0.818,0.379,0.664,0.626,�k�k��,7.9,��
2020/09/14,11:40,0.657,0.928,0.599,1.146,0.819,0.380,0.667,0.627,�k�k��,7.4,��
2020/09/14,11:50,0.659,0.928,0.598,1.146,0.819,0.379,0.666,0.627,�k�k��,8.6,��
2020/09/14,12:00,0.658,0.928,0.599,1.147,0.817,0.380,0.667,0.627,�k,7.7,��
2020/09/14,12:10,0.658,0.931,0.600,1.146,0.819,0.379,0.668,0.627,�k,6.9,��
2020/09/14,12:20,0.658,0.932,0.599,1.147,0.819,0.379,0.667,0.626,�k,8.7,��
2020/09/14,12:30,0.658,0.932,0.599,1.149,0.818,0.380,0.668,0.627,�k�k��,7.8,��
2020/09/14,12:40,0.658,0.930,0.600,1.147,0.821,0.381,0.667,0.626,�k�k��,7.6,��
2020/09/14,12:50,0.659,0.930,0.601,1.147,0.818,0.380,0.667,0.627,�k,7.0,��
2020/09/14,13:00,0.658,0.929,0.601,1.149,0.819,0.380,0.667,0.626,�k�k��,7.0,��
2020/09/14,13:10,0.660,0.931,0.599,1.147,0.820,0.380,0.669,0.627,�k�k��,8.6,��
2020/09/14,13:20,0.660,0.928,0.599,1.148,0.821,0.380,0.667,0.627,�k�k��,7.9,��
2020/09/14,13:30,0.658,0.927,0.600,1.149,0.820,0.379,0.668,0.627,�k�k��,8.0,��
2020/09/14,13:40,0.657,0.930,0.602,1.149,0.820,0.380,0.668,0.627,�k�k��,9.1,��
2020/09/14,13:50,0.658,0.928,0.600,1.149,0.820,0.381,0.669,0.627,�k�k��,7.8,��
2020/09/14,14:00,0.659,0.928,0.602,1.149,0.822,0.379,0.669,0.629,�k�k��,9.5,��
2020/09/14,14:10,0.659,0.928,0.601,1.148,0.821,0.380,0.668,0.628,�k,6.6,��
2020/09/14,14:20,0.659,0.932,0.602,1.149,0.822,0.380,0.669,0.627,�k�k��,8.8,��
2020/09/14,14:30,0.659,0.931,0.600,1.150,0.822,0.380,0.668,0.629,�k�k��,8.6,��
2020/09/14,14:40,0.660,0.930,0.600,1.150,0.822,0.379,0.668,0.630,�k,7.3,��
2020/09/14,14:50,0.658,0.929,0.602,1.151,0.821,0.380,0.670,0.627,�k,7.9,��
2020/09/14,15:00,0.659,0.930,0.601,1.151,0.821,0.380,0.667,0.628,�k,7.4,��
2020/09/14,15:10,0.659,0.931,0.601,1.150,0.822,0.381,0.667,0.627,�k�k��,7.6,��
2020/09/14,15:20,0.659,0.933,0.601,1.152,0.820,0.380,0.668,0.628,�k�k��,7.2,��
2020/09/14,15:30,0.659,0.931,0.602,1.151,0.822,0.380,0.668,0.628,�k�k��,8.6,��
2020/09/14,15:40,0.658,0.932,0.602,1.153,0.822,0.380,0.669,0.628,�k�k��,6.5,��
2020/09/14,15:50,0.661,0.933,0.600,1.154,0.821,0.382,0.667,0.627,�k�k��,7.7,��
2020/09/14,16:00,0.658,0.935,0.602,1.153,0.823,0.382,0.667,0.628,�k�k��,7.6,�L
2020/09/14,16:10,0.660,0.934,0.601,1.156,0.822,0.384,0.667,0.628,�k�k��,6.6,�L
2020/09/14,16:20,0.659,0.934,0.601,1.154,0.823,0.383,0.667,0.627,�k�k��,6.8,�L
2020/09/14,16:30,0.658,0.936,0.602,1.153,0.823,0.381,0.667,0.628,�k�k��,7.5,�L
2020/09/14,16:40,0.658,0.936,0.600,1.154,0.823,0.382,0.668,0.628,�k�k��,6.3,�L
2020/09/14,16:50,0.660,0.933,0.602,1.154,0.821,0.382,0.668,0.628,�k�k��,5.5,�L
2020/09/14,17:00,0.658,0.934,0.602,1.152,0.824,0.382,0.668,0.628,�k�k��,4.4,��
2020/09/14,17:10,0.659,0.936,0.601,1.155,0.821,0.382,0.667,0.629,�k��,5.1,�L
2020/09/14,17:20,0.661,0.937,0.603,1.155,0.824,0.381,0.668,0.630,�k�k��,4.1,�L
2020/09/14,17:30,0.659,0.937,0.602,1.155,0.824,0.383,0.668,0.628,�k�k��,4.0,�L
2020/09/14,17:40,0.660,0.935,0.603,1.155,0.824,0.382,0.669,0.629,�k�k��,5.3,�L
2020/09/14,17:50,0.660,0.937,0.602,1.155,0.825,0.381,0.667,0.629,�k�k��,5.8,�L
2020/09/14,18:00,0.659,0.937,0.604,1.155,0.826,0.381,0.669,0.630,�k�k��,7.3,�L
2020/09/14,18:10,0.660,0.935,0.605,1.155,0.826,0.382,0.668,0.631,�k�k��,7.3,�L
2020/09/14,18:20,0.659,0.936,0.604,1.157,0.824,0.382,0.668,0.631,�k��,6.4,��
2020/09/14,18:30,0.658,0.939,0.603,1.156,0.823,0.383,0.668,0.631,�k�k��,5.7,��
2020/09/14,18:40,0.660,0.937,0.604,1.157,0.826,0.383,0.667,0.630,�k��,5.4,��
2020/09/14,18:50,0.660,0.938,0.604,1.157,0.825,0.382,0.669,0.629,�k��,6.9,�L
2020/09/14,19:00,0.659,0.940,0.603,1.156,0.825,0.383,0.669,0.630,�k�k��,6.9,�L
2020/09/14,19:10,0.659,0.937,0.605,1.156,0.824,0.381,0.667,0.630,�k�k��,6.7,�L
2020/09/14,19:20,0.660,0.937,0.604,1.155,0.824,0.384,0.668,0.630,�k�k��,4.7,��
2020/09/14,19:30,0.661,0.938,0.605,1.156,0.826,0.383,0.668,0.630,�k�k��,5.2,�L
2020/09/14,19:40,0.661,0.939,0.603,1.156,0.825,0.382,0.668,0.629,�k�k��,5.7,��
2020/09/14,19:50,0.658,0.936,0.603,1.156,0.825,0.383,0.668,0.630,�k�k��,5.8,�L
2020/09/14,20:00,0.658,0.936,0.602,1.157,0.827,0.382,0.669,0.630,�k�k��,6.3,�L
2020/09/14,20:10,0.659,0.932,0.602,1.155,0.825,0.381,0.668,0.628,�k�k��,6.4,�L
2020/09/14,20:20,0.660,0.924,0.603,1.154,0.825,0.383,0.667,0.629,�k�k��,6.0,�L
2020/09/14,20:30,0.658,0.904,0.601,1.156,0.825,0.383,0.666,0.629,�k�k��,6.6,�L
2020/09/14,20:40,0.660,0.890,0.602,1.157,0.826,0.382,0.667,0.630,�k�k��,6.2,��
2020/09/14,20:50,0.657,0.880,0.603,1.157,0.825,0.382,0.666,0.631,�k�k��,6.1,��
2020/09/14,21:00,0.656,0.895,0.603,1.157,0.825,0.383,0.668,0.629,�k�k��,6.5,��
2020/09/14,21:10,0.660,0.909,0.603,1.155,0.827,0.384,0.666,0.631,�k�k��,6.8,�L
2020/09/14,21:20,0.659,0.886,0.604,1.155,0.826,0.382,0.669,0.630,�k�k��,6.2,�L
2020/09/14,21:30,0.659,0.916,0.605,1.156,0.826,0.384,0.666,0.631,�k�k��,6.1,�L
2020/09/14,21:40,0.658,0.922,0.604,1.158,0.824,0.384,0.669,0.629,�k�k��,7.1,��
2020/09/14,21:50,0.659,0.933,0.604,1.154,0.826,0.381,0.666,0.630,�k�k��,7.4,��
2020/09/14,22:00,0.657,0.926,0.601,1.154,0.824,0.381,0.667,0.630,�k�k��,6.5,��
2020/09/14,22:10,0.658,0.932,0.604,1.154,0.822,0.382,0.667,0.629,�k�k��,6.3,��
2020/09/14,22:20,0.658,0.928,0.603,1.157,0.823,0.383,0.667,0.629,�k�k��,6.0,�L
2020/09/14,22:30,0.658,0.930,0.603,1.155,0.822,0.383,0.667,0.630,�k�k��,6.7,�L
2020/09/14,22:40,0.661,0.935,0.607,1.153,0.825,0.382,0.666,0.630,�k�k��,6.3,�L
2020/09/14,22:50,0.658,0.934,0.603,1.156,0.824,0.382,0.668,0.631,�k�k��,5.4,��
2020/09/14,23:00,0.660,0.936,0.604,1.156,0.823,0.383,0.668,0.630,�k�k��,4.4,��
2020/09/14,23:10,0.660,0.937,0.603,1.157,0.825,0.384,0.667,0.630,�k�k��,4.6,�L
2020/09/14,23:20,0.660,0.937,0.604,1.155,0.824,0.382,0.667,0.632,�k�k��,5.0,�L
2020/09/14,23:30,0.659,0.937,0.604,1.155,0.824,0.383,0.669,0.630,�k�k��,5.7,�L
2020/09/14,23:40,0.660,0.936,0.603,1.157,0.823,0.382,0.667,0.631,�k�k��,6.2,�L
2020/09/14,23:50,0.658,0.934,0.603,1.156,0.825,0.383,0.668,0.630,�k�k��,5.8,�L
